User: anonymous   Login
Location: Homewood
(41.1836°S, 175.9581°E)
Time: 01:27:21
(UTC+00:00)
Language:

Cosmos 1140 Rocket - Orbit

View from above orbital plane
View from above orbital plane
View from above satellite
View from above satellite

Ground track
Ground track

The orbit data is extracted from the following two-line orbital elements,

1 11574U 79089B   24174.40316677  .00000291  00000-0  97516-4 0  9997
2 11574  74.0676 167.8778 0014881 143.9022 216.3142 14.41565214345977
Epoch (UTC): 22 June 2024 09:40:33
Eccentricity: 0.0014881
inclination: 74.0676°
perigee height: 743 km
apogee height: 764 km
right ascension of ascending node: 167.8778°
argument of perigee: 143.9022°
revolutions per day: 14.41565214
mean anomaly at epoch: 216.3142°
orbit number at epoch: 34597

The dashed part of the orbit path shows where the satellite is in the earth's shadow,  

DLR